Time,TemperatureF,DewpointF,PressureIn,WindDirection,WindDirectionDegrees,WindSpeedMPH,WindSpeedGustMPH,Humidity,HourlyPrecipIn,Conditions,Clouds,dailyrainin,SoftwareType,DateUTC
2013-01-19 00:03:00,45.0,20.3,30.06,WSW,239,12.0,13.0,37,0.00,,,0.00,Wunderground v.1.15,2013-01-19 06:03:00,
2013-01-19 00:09:00,45.2,19.8,30.06,WSW,238,12.0,13.0,36,0.00,,,0.00,Wunderground v.1.15,2013-01-19 06:09:00,
2013-01-19 00:15:00,45.5,20.1,30.06,SW,234,12.0,13.0,36,0.00,,,0.00,Wunderground v.1.15,2013-01-19 06:15:00,
2013-01-19 00:21:00,44.8,20.1,30.06,SW,232,12.0,12.0,37,0.00,,,0.00,Wunderground v.1.15,2013-01-19 06:21:00,
2013-01-19 00:26:00,44.3,19.6,30.05,SW,232,11.0,13.0,37,0.00,,,0.00,Wunderground v.1.15,2013-01-19 06:26:00,
2013-01-19 00:31:00,44.1,20.1,30.05,SW,236,12.0,13.0,38,0.00,,,0.00,Wunderground v.1.15,2013-01-19 06:31:00,
2013-01-19 00:37:00,43.7,19.7,30.05,SW,234,12.0,13.0,38,0.00,,,0.00,Wunderground v.1.15,2013-01-19 06:37:00,
2013-01-19 00:42:00,43.5,20.2,30.05,SW,234,12.0,13.0,39,0.00,,,0.00,Wunderground v.1.15,2013-01-19 06:42:00,
2013-01-19 00:48:00,43.2,19.9,30.05,SW,234,12.0,13.0,39,0.00,,,0.00,Wunderground v.1.15,2013-01-19 06:48:00,
2013-01-19 00:53:00,42.8,20.1,30.06,WSW,244,12.0,14.0,40,0.00,,,0.00,Wunderground v.1.15,2013-01-19 06:53:00,
2013-01-19 00:58:00,42.3,19.7,30.06,WSW,248,13.0,15.0,40,0.00,,,0.00,Wunderground v.1.15,2013-01-19 06:58:00,
2013-01-19 01:04:00,41.8,19.8,30.05,WSW,252,13.0,13.0,41,0.00,,,0.00,Wunderground v.1.15,2013-01-19 07:04:00,
2013-01-19 01:09:00,41.7,19.7,30.06,WSW,252,13.0,14.0,41,0.00,,,0.00,Wunderground v.1.15,2013-01-19 07:09:00,
2013-01-19 01:15:00,42.0,20.0,30.05,WSW,252,14.0,15.0,41,0.00,,,0.00,Wunderground v.1.15,2013-01-19 07:15:00,
2013-01-19 01:21:00,41.5,19.5,30.05,WSW,252,14.0,14.0,41,0.00,,,0.00,Wunderground v.1.15,2013-01-19 07:21:00,
2013-01-19 01:26:00,40.7,19.4,30.06,WSW,253,14.0,14.0,42,0.00,,,0.00,Wunderground v.1.15,2013-01-19 07:26:00,
2013-01-19 01:32:00,40.6,19.8,30.05,WSW,253,13.0,14.0,43,0.00,,,0.00,Wunderground v.1.15,2013-01-19 07:32:00,
2013-01-19 01:38:00,39.4,19.3,30.06,WSW,253,13.0,14.0,44,0.00,,,0.00,Wunderground v.1.15,2013-01-19 07:38:00,
2013-01-19 01:44:00,38.6,19.6,30.06,WSW,255,12.0,13.0,46,0.00,,,0.00,Wunderground v.1.15,2013-01-19 07:44:00,
2013-01-19 01:49:00,38.6,19.6,30.06,WSW,254,12.0,13.0,46,0.00,,,0.00,Wunderground v.1.15,2013-01-19 07:49:00,
2013-01-19 01:54:00,38.8,19.8,30.06,WSW,253,13.0,14.0,46,0.00,,,0.00,Wunderground v.1.15,2013-01-19 07:54:00,
2013-01-19 02:00:00,38.7,19.7,30.07,WSW,253,13.0,15.0,46,0.00,,,0.00,Wunderground v.1.15,2013-01-19 08:00:00,
2013-01-19 02:05:00,39.0,19.9,30.07,WSW,254,14.0,15.0,46,0.00,,,0.00,Wunderground v.1.15,2013-01-19 08:05:00,
2013-01-19 02:11:00,38.3,19.8,30.07,West,261,13.0,14.0,47,0.00,,,0.00,Wunderground v.1.15,2013-01-19 08:11:00,
2013-01-19 02:16:00,37.3,19.4,30.07,West,265,12.0,14.0,48,0.00,,,0.00,Wunderground v.1.15,2013-01-19 08:16:00,
2013-01-19 02:22:00,36.3,19.4,30.07,West,265,11.0,12.0,50,0.00,,,0.00,Wunderground v.1.15,2013-01-19 08:22:00,
2013-01-19 02:27:00,35.8,19.4,30.08,West,267,12.0,12.0,51,0.00,,,0.00,Wunderground v.1.15,2013-01-19 08:27:00,
2013-01-19 02:33:00,36.1,19.7,30.08,West,259,12.0,13.0,51,0.00,,,0.00,Wunderground v.1.15,2013-01-19 08:33:00,
2013-01-19 02:38:00,37.0,20.1,30.08,West,259,12.0,13.0,50,0.00,,,0.00,Wunderground v.1.15,2013-01-19 08:38:00,
2013-01-19 02:43:00,36.9,20.0,30.08,WSW,257,13.0,14.0,50,0.00,,,0.00,Wunderground v.1.15,2013-01-19 08:43:00,
2013-01-19 02:48:00,36.7,19.8,30.08,West,259,12.0,14.0,50,0.00,,,0.00,Wunderground v.1.15,2013-01-19 08:48:00,
2013-01-19 02:54:00,36.1,19.7,30.09,West,265,11.0,13.0,51,0.00,,,0.00,Wunderground v.1.15,2013-01-19 08:54:00,
2013-01-19 02:59:00,35.3,19.9,30.09,West,268,11.0,13.0,53,0.00,,,0.00,Wunderground v.1.15,2013-01-19 08:59:00,
2013-01-19 03:05:00,34.6,19.6,30.09,West,267,11.0,12.0,54,0.00,,,0.00,Wunderground v.1.15,2013-01-19 09:05:00,
2013-01-19 03:10:00,34.7,19.7,30.09,West,267,11.0,11.0,54,0.00,,,0.00,Wunderground v.1.15,2013-01-19 09:10:00,
2013-01-19 03:16:00,35.1,20.1,30.09,West,267,12.0,13.0,54,0.00,,,0.00,Wunderground v.1.15,2013-01-19 09:16:00,
2013-01-19 03:21:00,35.8,20.3,30.09,West,267,12.0,12.0,53,0.00,,,0.00,Wunderground v.1.15,2013-01-19 09:21:00,
2013-01-19 03:27:00,35.8,20.3,30.08,West,267,11.0,12.0,53,0.00,,,0.00,Wunderground v.1.15,2013-01-19 09:27:00,
2013-01-19 03:32:00,35.4,19.9,30.08,West,267,9.0,10.0,53,0.00,,,0.00,Wunderground v.1.15,2013-01-19 09:32:00,
2013-01-19 03:38:00,34.7,19.7,30.08,West,267,10.0,11.0,54,0.00,,,0.00,Wunderground v.1.15,2013-01-19 09:38:00,
2013-01-19 03:43:00,34.5,19.5,30.08,West,267,11.0,11.0,54,0.00,,,0.00,Wunderground v.1.15,2013-01-19 09:43:00,
2013-01-19 03:49:00,34.4,19.9,30.08,West,267,11.0,13.0,55,0.00,,,0.00,Wunderground v.1.15,2013-01-19 09:49:00,
2013-01-19 03:54:00,34.3,19.8,30.09,West,267,11.0,11.0,55,0.00,,,0.00,Wunderground v.1.15,2013-01-19 09:54:00,
2013-01-19 04:00:00,34.2,19.7,30.09,West,267,11.0,11.0,55,0.00,,,0.00,Wunderground v.1.15,2013-01-19 10:00:00,
2013-01-19 04:05:00,34.1,20.0,30.09,West,266,11.0,13.0,56,0.00,,,0.00,Wunderground v.1.15,2013-01-19 10:05:00,
2013-01-19 04:11:00,34.1,20.0,30.09,West,270,11.0,13.0,56,0.00,,,0.00,Wunderground v.1.15,2013-01-19 10:11:00,
2013-01-19 04:17:00,33.9,19.8,30.09,West,273,12.0,14.0,56,0.00,,,0.00,Wunderground v.1.15,2013-01-19 10:17:00,
2013-01-19 04:23:00,33.9,20.3,30.09,West,273,13.0,13.0,57,0.00,,,0.00,Wunderground v.1.15,2013-01-19 10:23:00,
2013-01-19 04:29:00,33.9,20.3,30.09,West,269,12.0,13.0,57,0.00,,,0.00,Wunderground v.1.15,2013-01-19 10:29:00,
2013-01-19 04:34:00,33.6,20.0,30.09,West,271,11.0,12.0,57,0.00,,,0.00,Wunderground v.1.15,2013-01-19 10:34:00,
2013-01-19 04:40:00,33.7,20.1,30.10,West,271,11.0,14.0,57,0.00,,,0.00,Wunderground v.1.15,2013-01-19 10:40:00,
2013-01-19 04:45:00,34.3,20.6,30.10,West,271,13.0,15.0,57,0.00,,,0.00,Wunderground v.1.15,2013-01-19 10:45:00,
2013-01-19 04:51:00,34.6,20.5,30.10,West,269,14.0,14.0,56,0.00,,,0.00,Wunderground v.1.15,2013-01-19 10:51:00,
2013-01-19 04:56:00,34.4,20.7,30.10,West,272,12.0,14.0,57,0.00,,,0.00,Wunderground v.1.15,2013-01-19 10:56:00,
2013-01-19 05:02:00,34.6,20.9,30.11,West,272,12.0,14.0,57,0.00,,,0.00,Wunderground v.1.15,2013-01-19 11:02:00,
2013-01-19 05:07:00,35.3,20.7,30.11,West,270,12.0,14.0,55,0.00,,,0.00,Wunderground v.1.15,2013-01-19 11:07:00,
2013-01-19 05:12:00,35.7,20.7,30.11,West,267,12.0,12.0,54,0.00,,,0.00,Wunderground v.1.15,2013-01-19 11:12:00,
2013-01-19 06:47:00,33.1,19.9,30.16,West,266,17.0,19.0,58,0.00,,,0.00,Wunderground v.1.15,2013-01-19 12:47:00,
2013-01-19 06:48:00,33.0,19.8,30.16,West,266,17.0,19.0,58,0.00,,,0.00,Wunderground v.1.15,2013-01-19 12:48:00,
2013-01-19 06:49:00,32.9,19.7,30.17,West,266,17.0,19.0,58,0.00,,,0.00,Wunderground v.1.15,2013-01-19 12:49:00,
2013-01-19 06:54:00,32.5,19.3,30.17,West,267,16.0,17.0,58,0.00,,,0.00,Wunderground v.1.15,2013-01-19 12:54:00,
2013-01-19 06:55:00,32.5,19.7,30.17,West,267,16.0,17.0,59,0.00,,,0.00,Wunderground v.1.15,2013-01-19 12:55:00,
2013-01-19 07:00:00,31.7,19.4,30.17,West,269,14.0,14.0,60,0.00,,,0.00,Wunderground v.1.15,2013-01-19 13:00:00,
2013-01-19 07:06:00,31.5,19.6,30.17,West,269,13.0,14.0,61,0.00,,,0.00,Wunderground v.1.15,2013-01-19 13:06:00,
2013-01-19 07:11:00,32.1,19.8,30.17,West,264,13.0,17.0,60,0.00,,,0.00,Wunderground v.1.15,2013-01-19 13:11:00,
2013-01-19 07:17:00,32.7,19.9,30.18,West,263,15.0,18.0,59,0.00,,,0.00,Wunderground v.1.15,2013-01-19 13:17:00,
2013-01-19 07:22:00,32.9,19.7,30.18,West,265,17.0,17.0,58,0.00,,,0.00,Wunderground v.1.15,2013-01-19 13:22:00,
2013-01-19 07:28:00,32.8,19.6,30.18,West,265,17.0,18.0,58,0.00,,,0.00,Wunderground v.1.15,2013-01-19 13:28:00,
2013-01-19 07:33:00,32.8,19.6,30.19,West,263,17.0,19.0,58,0.00,,,0.00,Wunderground v.1.15,2013-01-19 13:33:00,
2013-01-19 07:38:00,32.7,19.5,30.19,West,266,17.0,19.0,58,0.00,,,0.00,Wunderground v.1.15,2013-01-19 13:38:00,
2013-01-19 07:44:00,32.7,19.5,30.20,West,266,17.0,19.0,58,0.00,,,0.00,Wunderground v.1.15,2013-01-19 13:44:00,
2013-01-19 07:50:00,32.2,19.5,30.20,West,267,17.0,17.0,59,0.00,,,0.00,Wunderground v.1.15,2013-01-19 13:50:00,
2013-01-19 07:55:00,31.8,19.1,30.20,West,266,16.0,17.0,59,0.00,,,0.00,Wunderground v.1.15,2013-01-19 13:55:00,
2013-01-19 08:01:00,31.7,19.4,30.20,West,267,16.0,18.0,60,0.00,,,0.00,Wunderground v.1.15,2013-01-19 14:01:00,
2013-01-19 08:06:00,31.9,19.6,30.20,West,266,16.0,18.0,60,0.00,,,0.00,Wunderground v.1.15,2013-01-19 14:06:00,
2013-01-19 08:12:00,31.6,19.3,30.20,West,265,15.0,16.0,60,0.00,,,0.00,Wunderground v.1.15,2013-01-19 14:12:00,
2013-01-19 08:18:00,31.8,19.5,30.20,West,266,14.0,16.0,60,0.00,,,0.00,Wunderground v.1.15,2013-01-19 14:18:00,
2013-01-19 08:23:00,32.4,19.7,30.21,West,265,14.0,16.0,59,0.00,,,0.00,Wunderground v.1.15,2013-01-19 14:23:00,
2013-01-19 08:29:00,33.2,19.6,30.21,West,263,15.0,16.0,57,0.00,,,0.00,Wunderground v.1.15,2013-01-19 14:29:00,
2013-01-19 08:35:00,34.4,20.3,30.21,West,263,15.0,17.0,56,0.00,,,0.00,Wunderground v.1.15,2013-01-19 14:35:00,
2013-01-19 08:40:00,34.9,19.9,30.21,West,263,15.0,16.0,54,0.00,,,0.00,Wunderground v.1.15,2013-01-19 14:40:00,
2013-01-19 08:46:00,35.1,20.1,30.21,West,265,15.0,17.0,54,0.00,,,0.00,Wunderground v.1.15,2013-01-19 14:46:00,
2013-01-19 08:51:00,35.0,20.0,30.22,West,265,15.0,16.0,54,0.00,,,0.00,Wunderground v.1.15,2013-01-19 14:51:00,
2013-01-19 08:57:00,34.4,19.9,30.22,West,266,16.0,16.0,55,0.00,,,0.00,Wunderground v.1.15,2013-01-19 14:57:00,
2013-01-19 09:03:00,33.9,19.8,30.22,West,270,15.0,15.0,56,0.00,,,0.00,Wunderground v.1.15,2013-01-19 15:03:00,
2013-01-19 09:08:00,33.7,20.1,30.22,West,269,14.0,15.0,57,0.00,,,0.00,Wunderground v.1.15,2013-01-19 15:08:00,
2013-01-19 09:14:00,33.7,20.1,30.22,West,269,14.0,15.0,57,0.00,,,0.00,Wunderground v.1.15,2013-01-19 15:14:00,
2013-01-19 09:19:00,33.9,20.3,30.23,West,268,14.0,15.0,57,0.00,,,0.00,Wunderground v.1.15,2013-01-19 15:19:00,
2013-01-19 09:25:00,34.4,20.7,30.23,West,271,14.0,15.0,57,0.00,,,0.00,Wunderground v.1.15,2013-01-19 15:25:00,
2013-01-19 09:30:00,34.9,20.8,30.23,West,269,14.0,14.0,56,0.00,,,0.00,Wunderground v.1.15,2013-01-19 15:30:00,
2013-01-19 09:36:00,36.0,21.4,30.24,West,271,14.0,17.0,55,0.00,,,0.00,Wunderground v.1.15,2013-01-19 15:36:00,
2013-01-19 09:41:00,36.7,21.6,30.24,West,270,15.0,17.0,54,0.00,,,0.00,Wunderground v.1.15,2013-01-19 15:41:00,
2013-01-19 09:47:00,37.7,21.6,30.24,West,267,15.0,17.0,52,0.00,,,0.00,Wunderground v.1.15,2013-01-19 15:47:00,
2013-01-19 09:52:00,38.6,21.5,30.25,West,265,15.0,18.0,50,0.00,,,0.00,Wunderground v.1.15,2013-01-19 15:52:00,
2013-01-19 09:58:00,39.1,21.5,30.25,West,269,16.0,20.0,49,0.00,,,0.00,Wunderground v.1.15,2013-01-19 15:58:00,
2013-01-19 10:03:00,39.4,21.3,30.25,West,266,17.0,19.0,48,0.00,,,0.00,Wunderground v.1.15,2013-01-19 16:03:00,
2013-01-19 10:09:00,39.8,21.7,30.25,West,267,17.0,19.0,48,0.00,,,0.00,Wunderground v.1.15,2013-01-19 16:09:00,
2013-01-19 10:15:00,40.1,22.0,30.26,West,260,15.0,17.0,48,0.00,,,0.00,Wunderground v.1.15,2013-01-19 16:15:00,
2013-01-19 10:20:00,40.4,21.7,30.26,West,264,16.0,16.0,47,0.00,,,0.00,Wunderground v.1.15,2013-01-19 16:20:00,
2013-01-19 10:26:00,40.6,21.4,30.27,West,263,18.0,23.0,46,0.00,,,0.00,Wunderground v.1.15,2013-01-19 16:26:00,
2013-01-19 10:32:00,40.9,21.7,30.27,West,267,18.0,19.0,46,0.00,,,0.00,Wunderground v.1.15,2013-01-19 16:32:00,
2013-01-19 10:37:00,41.3,22.1,30.27,West,265,16.0,19.0,46,0.00,,,0.00,Wunderground v.1.15,2013-01-19 16:37:00,
2013-01-19 10:43:00,41.6,21.8,30.28,West,263,16.0,19.0,45,0.00,,,0.00,Wunderground v.1.15,2013-01-19 16:43:00,
2013-01-19 10:48:00,42.0,22.2,30.27,WSW,256,16.0,20.0,45,0.00,,,0.00,Wunderground v.1.15,2013-01-19 16:48:00,
2013-01-19 10:53:00,42.4,22.5,30.28,WSW,246,17.0,18.0,45,0.00,,,0.00,Wunderground v.1.15,2013-01-19 16:53:00,
2013-01-19 10:59:00,42.9,22.5,30.28,West,259,17.0,19.0,44,0.00,,,0.00,Wunderground v.1.15,2013-01-19 16:59:00,
2013-01-19 11:05:00,43.1,22.1,30.28,West,261,17.0,19.0,43,0.00,,,0.00,Wunderground v.1.15,2013-01-19 17:05:00,
2013-01-19 11:10:00,43.5,22.5,30.28,West,265,17.0,17.0,43,0.00,,,0.00,Wunderground v.1.15,2013-01-19 17:10:00,
2013-01-19 11:15:00,44.0,22.9,30.28,West,264,16.0,19.0,43,0.00,,,0.00,Wunderground v.1.15,2013-01-19 17:15:00,
2013-01-19 11:20:00,44.3,23.2,30.28,West,267,15.0,17.0,43,0.00,,,0.00,Wunderground v.1.15,2013-01-19 17:20:00,
2013-01-19 11:26:00,44.6,23.5,30.27,West,277,16.0,21.0,43,0.00,,,0.00,Wunderground v.1.15,2013-01-19 17:26:00,
2013-01-19 11:31:00,45.4,23.6,30.27,West,273,16.0,17.0,42,0.00,,,0.00,Wunderground v.1.15,2013-01-19 17:31:00,
2013-01-19 11:37:00,45.4,23.6,30.27,West,269,17.0,17.0,42,0.00,,,0.00,Wunderground v.1.15,2013-01-19 17:37:00,
2013-01-19 11:42:00,46.1,23.7,30.27,WNW,284,11.0,17.0,41,0.00,,,0.00,Wunderground v.1.15,2013-01-19 17:42:00,
2013-01-19 11:48:00,46.9,23.8,30.27,West,280,13.0,17.0,40,0.00,,,0.00,Wunderground v.1.15,2013-01-19 17:48:00,
2013-01-19 11:53:00,47.4,24.3,30.26,West,277,14.0,16.0,40,0.00,,,0.00,Wunderground v.1.15,2013-01-19 17:53:00,
2013-01-19 11:59:00,48.4,24.6,30.26,WNW,282,13.0,16.0,39,0.00,,,0.00,Wunderground v.1.15,2013-01-19 17:59:00,
2013-01-19 12:05:00,49.7,25.1,30.26,WNW,284,14.0,17.0,38,0.00,,,0.00,Wunderground v.1.15,2013-01-19 18:05:00,
2013-01-19 12:11:00,50.6,24.6,30.25,West,277,14.0,14.0,36,0.00,,,0.00,Wunderground v.1.15,2013-01-19 18:11:00,
2013-01-19 12:16:00,51.3,25.2,30.25,West,277,15.0,18.0,36,0.00,,,0.00,Wunderground v.1.15,2013-01-19 18:16:00,
2013-01-19 12:22:00,51.5,25.4,30.25,West,267,14.0,14.0,36,0.00,,,0.00,Wunderground v.1.15,2013-01-19 18:22:00,
2013-01-19 12:27:00,51.9,25.1,30.24,WNW,284,12.0,16.0,35,0.00,,,0.00,Wunderground v.1.15,2013-01-19 18:27:00,
2013-01-19 12:32:00,53.0,24.6,30.24,WNW,286,14.0,22.0,33,0.00,,,0.00,Wunderground v.1.15,2013-01-19 18:32:00,
2013-01-19 12:37:00,53.3,24.2,30.24,West,279,18.0,22.0,32,0.00,,,0.00,Wunderground v.1.15,2013-01-19 18:37:00,
2013-01-19 12:43:00,53.6,24.4,30.24,West,281,17.0,18.0,32,0.00,,,0.00,Wunderground v.1.15,2013-01-19 18:43:00,
2013-01-19 12:49:00,53.7,24.5,30.24,WNW,286,15.0,18.0,32,0.00,,,0.00,Wunderground v.1.15,2013-01-19 18:49:00,
2013-01-19 12:55:00,54.0,24.0,30.24,West,270,15.0,20.0,31,0.00,,,0.00,Wunderground v.1.15,2013-01-19 18:55:00,
2013-01-19 13:00:00,53.8,24.6,30.24,West,271,16.0,19.0,32,0.00,,,0.00,Wunderground v.1.15,2013-01-19 19:00:00,
2013-01-19 13:06:00,53.4,24.2,30.24,West,259,17.0,20.0,32,0.00,,,0.00,Wunderground v.1.15,2013-01-19 19:06:00,
2013-01-19 13:12:00,53.7,24.5,30.24,West,268,17.0,17.0,32,0.00,,,0.00,Wunderground v.1.15,2013-01-19 19:12:00,
2013-01-19 13:18:00,53.6,24.4,30.24,WSW,254,16.0,20.0,32,0.00,,,0.00,Wunderground v.1.15,2013-01-19 19:18:00,
2013-01-19 13:23:00,53.9,23.9,30.24,West,263,15.0,17.0,31,0.00,,,0.00,Wunderground v.1.15,2013-01-19 19:23:00,
2013-01-19 13:28:00,54.3,24.3,30.23,WNW,284,14.0,17.0,31,0.00,,,0.00,Wunderground v.1.15,2013-01-19 19:28:00,
2013-01-19 13:37:00,54.9,23.2,30.23,WNW,292,16.0,20.0,29,0.00,,,0.00,Wunderground v.1.15,2013-01-19 19:37:00,
2013-01-19 13:43:00,54.8,23.1,30.23,WNW,291,19.0,22.0,29,0.00,,,0.00,Wunderground v.1.15,2013-01-19 19:43:00,
2013-01-19 13:48:00,55.0,23.3,30.23,WNW,285,19.0,24.0,29,0.00,,,0.00,Wunderground v.1.15,2013-01-19 19:48:00,
2013-01-19 13:53:00,55.0,23.3,30.23,WNW,288,20.0,24.0,29,0.00,,,0.00,Wunderground v.1.15,2013-01-19 19:53:00,
2013-01-19 13:59:00,55.0,22.4,30.23,WNW,282,23.0,26.0,28,0.00,,,0.00,Wunderground v.1.15,2013-01-19 19:59:00,
2013-01-19 14:04:00,54.8,22.3,30.22,WNW,287,23.0,23.0,28,0.00,,,0.00,Wunderground v.1.15,2013-01-19 20:04:00,
2013-01-19 14:09:00,54.9,23.2,30.23,West,280,20.0,23.0,29,0.00,,,0.00,Wunderground v.1.15,2013-01-19 20:09:00,
2013-01-19 14:14:00,54.8,23.1,30.23,West,270,21.0,24.0,29,0.00,,,0.00,Wunderground v.1.15,2013-01-19 20:14:00,
2013-01-19 14:19:00,54.9,22.4,30.23,WNW,292,23.0,28.0,28,0.00,,,0.00,Wunderground v.1.15,2013-01-19 20:19:00,
2013-01-19 14:25:00,54.7,22.2,30.23,WNW,294,23.0,26.0,28,0.00,,,0.00,Wunderground v.1.15,2013-01-19 20:25:00,
2013-01-19 14:30:00,55.1,22.5,30.23,West,273,21.0,24.0,28,0.00,,,0.00,Wunderground v.1.15,2013-01-19 20:30:00,
2013-01-19 14:36:00,55.0,23.3,30.23,WNW,282,21.0,26.0,29,0.00,,,0.00,Wunderground v.1.15,2013-01-19 20:36:00,
2013-01-19 14:41:00,54.8,23.1,30.23,NW,306,22.0,22.0,29,0.00,,,0.00,Wunderground v.1.15,2013-01-19 20:41:00,
2013-01-19 14:47:00,54.9,23.2,30.23,West,280,19.0,23.0,29,0.00,,,0.00,Wunderground v.1.15,2013-01-19 20:47:00,
2013-01-19 14:53:00,55.2,23.5,30.23,West,273,19.0,19.0,29,0.00,,,0.00,Wunderground v.1.15,2013-01-19 20:53:00,
2013-01-19 14:59:00,55.2,22.6,30.24,WNW,291,20.0,24.0,28,0.00,,,0.00,Wunderground v.1.15,2013-01-19 20:59:00,
2013-01-19 15:04:00,55.3,22.7,30.24,NW,309,21.0,22.0,28,0.00,,,0.00,Wunderground v.1.15,2013-01-19 21:04:00,
2013-01-19 15:11:00,55.3,22.7,30.24,NW,309,18.0,18.0,28,0.00,,,0.00,Wunderground v.1.15,2013-01-19 21:11:00,
2013-01-19 15:17:00,55.2,23.5,30.24,NW,306,17.0,24.0,29,0.00,,,0.00,Wunderground v.1.15,2013-01-19 21:17:00,
2013-01-19 15:22:00,55.0,22.4,30.24,WNW,298,20.0,24.0,28,0.00,,,0.00,Wunderground v.1.15,2013-01-19 21:22:00,
2013-01-19 15:28:00,55.0,23.3,30.25,WNW,292,20.0,24.0,29,0.00,,,0.00,Wunderground v.1.15,2013-01-19 21:28:00,
2013-01-19 15:33:00,54.6,22.9,30.25,WNW,303,19.0,22.0,29,0.00,,,0.00,Wunderground v.1.15,2013-01-19 21:33:00,
2013-01-19 15:39:00,54.5,22.9,30.25,WNW,298,20.0,22.0,29,0.00,,,0.00,Wunderground v.1.15,2013-01-19 21:39:00,
2013-01-19 15:45:00,54.4,22.8,30.25,NW,306,19.0,21.0,29,0.00,,,0.00,Wunderground v.1.15,2013-01-19 21:45:00,
2013-01-19 15:51:00,54.2,22.6,30.25,WNW,302,19.0,22.0,29,0.00,,,0.00,Wunderground v.1.15,2013-01-19 21:51:00,
2013-01-19 15:57:00,54.2,22.6,30.25,WNW,301,20.0,25.0,29,0.00,,,0.00,Wunderground v.1.15,2013-01-19 21:57:00,
2013-01-19 16:03:00,54.1,22.5,30.26,NW,315,20.0,22.0,29,0.00,,,0.00,Wunderground v.1.15,2013-01-19 22:03:00,
2013-01-19 16:10:00,54.0,23.2,30.26,NW,313,19.0,19.0,30,0.00,,,0.00,Wunderground v.1.15,2013-01-19 22:10:00,
2013-01-19 16:15:00,54.0,23.2,30.26,NW,304,18.0,23.0,30,0.00,,,0.00,Wunderground v.1.15,2013-01-19 22:15:00,
2013-01-19 16:20:00,53.9,23.1,30.26,NW,304,17.0,19.0,30,0.00,,,0.00,Wunderground v.1.15,2013-01-19 22:20:00,
2013-01-19 16:25:00,53.9,23.1,30.26,NW,309,15.0,19.0,30,0.00,,,0.00,Wunderground v.1.15,2013-01-19 22:25:00,
2013-01-19 16:31:00,53.6,22.9,30.26,WNW,303,16.0,17.0,30,0.00,,,0.00,Wunderground v.1.15,2013-01-19 22:31:00,
2013-01-19 16:36:00,53.5,22.8,30.26,NW,309,16.0,18.0,30,0.00,,,0.00,Wunderground v.1.15,2013-01-19 22:36:00,
2013-01-19 16:41:00,53.4,22.7,30.26,NW,312,16.0,20.0,30,0.00,,,0.00,Wunderground v.1.15,2013-01-19 22:41:00,
2013-01-19 16:46:00,53.3,22.6,30.27,NW,310,16.0,20.0,30,0.00,,,0.00,Wunderground v.1.15,2013-01-19 22:46:00,
2013-01-19 16:52:00,53.2,22.5,30.27,NW,307,14.0,15.0,30,0.00,,,0.00,Wunderground v.1.15,2013-01-19 22:52:00,
2013-01-19 16:57:00,52.9,23.0,30.27,NW,315,13.0,15.0,31,0.00,,,0.00,Wunderground v.1.15,2013-01-19 22:57:00,
2013-01-19 17:03:00,52.6,22.8,30.28,NW,313,12.0,14.0,31,0.00,,,0.00,Wunderground v.1.15,2013-01-19 23:03:00,
2013-01-19 17:08:00,52.4,22.6,30.28,NW,313,12.0,14.0,31,0.00,,,0.00,Wunderground v.1.15,2013-01-19 23:08:00,
2013-01-19 17:14:00,52.2,22.4,30.28,NW,305,12.0,13.0,31,0.00,,,0.00,Wunderground v.1.15,2013-01-19 23:14:00,
2013-01-19 17:20:00,52.1,22.3,30.28,NW,304,11.0,11.0,31,0.00,,,0.00,Wunderground v.1.15,2013-01-19 23:20:00,
2013-01-19 17:25:00,51.9,22.9,30.29,WNW,303,10.0,11.0,32,0.00,,,0.00,Wunderground v.1.15,2013-01-19 23:25:00,
2013-01-19 17:30:00,51.4,23.2,30.29,WNW,302,9.0,9.0,33,0.00,,,0.00,Wunderground v.1.15,2013-01-19 23:30:00,
2013-01-19 17:36:00,50.9,22.1,30.29,NW,321,8.0,9.0,32,0.00,,,0.00,Wunderground v.1.15,2013-01-19 23:36:00,
2013-01-19 17:43:00,50.3,22.3,30.29,NW,321,7.0,8.0,33,0.00,,,0.00,Wunderground v.1.15,2013-01-19 23:43:00,
2013-01-19 17:48:00,49.6,22.3,30.30,NNW,340,7.0,8.0,34,0.00,,,0.00,Wunderground v.1.15,2013-01-19 23:48:00,
2013-01-19 17:54:00,49.3,22.8,30.30,NNW,327,8.0,13.0,35,0.00,,,0.00,Wunderground v.1.15,2013-01-19 23:54:00,
2013-01-19 17:59:00,49.0,22.5,30.30,NNW,333,11.0,16.0,35,0.00,,,0.00,Wunderground v.1.15,2013-01-19 23:59:00,
2013-01-19 18:04:00,48.4,22.6,30.31,NNW,338,12.0,13.0,36,0.00,,,0.00,Wunderground v.1.15,2013-01-20 00:04:00,
2013-01-19 18:09:00,48.1,23.0,30.31,NNW,338,12.0,15.0,37,0.00,,,0.00,Wunderground v.1.15,2013-01-20 00:09:00,
2013-01-19 18:14:00,47.6,22.6,30.31,North,355,12.0,12.0,37,0.00,,,0.00,Wunderground v.1.15,2013-01-20 00:14:00,
2013-01-19 18:20:00,47.0,23.3,30.32,North,360,11.0,11.0,39,0.00,,,0.00,Wunderground v.1.15,2013-01-20 00:20:00,
2013-01-19 18:26:00,46.2,23.8,30.32,North,355,12.0,17.0,41,0.00,,,0.00,Wunderground v.1.15,2013-01-20 00:26:00,
2013-01-19 18:31:00,45.6,23.8,30.32,NNW,340,12.0,16.0,42,0.00,,,0.00,Wunderground v.1.15,2013-01-20 00:31:00,
2013-01-19 18:37:00,45.0,23.8,30.32,NNW,348,12.0,16.0,43,0.00,,,0.00,Wunderground v.1.15,2013-01-20 00:37:00,
2013-01-19 18:43:00,44.6,24.0,30.32,NNW,340,12.0,14.0,44,0.00,,,0.00,Wunderground v.1.15,2013-01-20 00:43:00,
2013-01-19 18:49:00,44.4,24.4,30.33,NNW,347,13.0,18.0,45,0.00,,,0.00,Wunderground v.1.15,2013-01-20 00:49:00,
2013-01-19 18:55:00,44.0,24.5,30.33,NNW,340,15.0,17.0,46,0.00,,,0.00,Wunderground v.1.15,2013-01-20 00:55:00,
2013-01-19 19:01:00,43.7,24.2,30.33,NNW,333,16.0,16.0,46,0.00,,,0.00,Wunderground v.1.15,2013-01-20 01:01:00,
2013-01-19 19:07:00,43.4,24.0,30.34,NNW,338,14.0,16.0,46,0.00,,,0.00,Wunderground v.1.15,2013-01-20 01:07:00,
2013-01-19 19:13:00,42.5,24.2,30.34,NNW,336,11.0,13.0,48,0.00,,,0.00,Wunderground v.1.15,2013-01-20 01:13:00,
2013-01-19 19:18:00,41.9,23.6,30.35,NNW,333,10.0,13.0,48,0.00,,,0.00,Wunderground v.1.15,2013-01-20 01:18:00,
2013-01-19 19:24:00,41.2,23.5,30.35,NNW,329,8.0,9.0,49,0.00,,,0.00,Wunderground v.1.15,2013-01-20 01:24:00,
2013-01-19 19:30:00,40.6,23.4,30.35,NNW,344,8.0,8.0,50,0.00,,,0.00,Wunderground v.1.15,2013-01-20 01:30:00,
2013-01-19 19:36:00,40.2,23.5,30.35,NNW,336,8.0,12.0,51,0.00,,,0.00,Wunderground v.1.15,2013-01-20 01:36:00,
2013-01-19 19:41:00,39.9,23.2,30.35,NNW,336,9.0,9.0,51,0.00,,,0.00,Wunderground v.1.15,2013-01-20 01:41:00,
2013-01-19 19:46:00,39.7,23.5,30.35,North,355,9.0,12.0,52,0.00,,,0.00,Wunderground v.1.15,2013-01-20 01:46:00,
2013-01-19 19:51:00,39.5,23.3,30.36,NNW,348,10.0,10.0,52,0.00,,,0.00,Wunderground v.1.15,2013-01-20 01:51:00,
2013-01-19 19:57:00,39.2,23.0,30.36,NNW,339,10.0,10.0,52,0.00,,,0.00,Wunderground v.1.15,2013-01-20 01:57:00,
2013-01-19 20:03:00,38.8,23.1,30.36,NNW,342,9.0,11.0,53,0.00,,,0.00,Wunderground v.1.15,2013-01-20 02:03:00,
2013-01-19 20:09:00,38.4,23.2,30.37,NNW,330,7.0,11.0,54,0.00,,,0.00,Wunderground v.1.15,2013-01-20 02:09:00,
2013-01-19 20:15:00,37.9,22.7,30.37,NNW,330,4.0,7.0,54,0.00,,,0.00,Wunderground v.1.15,2013-01-20 02:15:00,
2013-01-19 20:21:00,37.5,22.8,30.38,NNW,330,3.0,3.0,55,0.00,,,0.00,Wunderground v.1.15,2013-01-20 02:21:00,
2013-01-19 20:27:00,37.6,22.9,30.38,NNW,329,4.0,7.0,55,0.00,,,0.00,Wunderground v.1.15,2013-01-20 02:27:00,
2013-01-19 20:33:00,37.5,22.8,30.38,NNW,329,5.0,6.0,55,0.00,,,0.00,Wunderground v.1.15,2013-01-20 02:33:00,
2013-01-19 20:39:00,37.3,23.0,30.38,NNW,329,5.0,6.0,56,0.00,,,0.00,Wunderground v.1.15,2013-01-20 02:39:00,
2013-01-19 20:44:00,37.1,22.8,30.39,NNW,329,5.0,5.0,56,0.00,,,0.00,Wunderground v.1.15,2013-01-20 02:44:00,
2013-01-19 20:50:00,36.9,23.1,30.39,NNW,329,4.0,4.0,57,0.00,,,0.00,Wunderground v.1.15,2013-01-20 02:50:00,
2013-01-19 20:55:00,36.8,23.0,30.39,NNW,329,3.0,4.0,57,0.00,,,0.00,Wunderground v.1.15,2013-01-20 02:55:00,
2013-01-19 21:00:00,36.7,22.9,30.39,NNW,329,4.0,5.0,57,0.00,,,0.00,Wunderground v.1.15,2013-01-20 03:00:00,
2013-01-19 21:06:00,36.8,23.4,30.40,NNW,329,5.0,7.0,58,0.00,,,0.00,Wunderground v.1.15,2013-01-20 03:06:00,
2013-01-19 21:11:00,36.7,23.3,30.40,NNW,329,5.0,5.0,58,0.00,,,0.00,Wunderground v.1.15,2013-01-20 03:11:00,
2013-01-19 21:17:00,36.5,23.1,30.40,NNW,329,2.0,5.0,58,0.00,,,0.00,Wunderground v.1.15,2013-01-20 03:17:00,
2013-01-19 21:23:00,36.3,22.9,30.40,NNW,329,1.0,4.0,58,0.00,,,0.00,Wunderground v.1.15,2013-01-20 03:23:00,
2013-01-19 21:29:00,36.4,23.4,30.40,NNW,329,4.0,5.0,59,0.00,,,0.00,Wunderground v.1.15,2013-01-20 03:29:00,
2013-01-19 21:34:00,36.5,23.5,30.39,NNW,345,5.0,7.0,59,0.00,,,0.00,Wunderground v.1.15,2013-01-20 03:34:00,
2013-01-19 21:40:00,36.5,23.5,30.40,NNW,346,6.0,6.0,59,0.00,,,0.00,Wunderground v.1.15,2013-01-20 03:40:00,
2013-01-19 21:46:00,36.4,23.4,30.40,NNW,346,3.0,6.0,59,0.00,,,0.00,Wunderground v.1.15,2013-01-20 03:46:00,
2013-01-19 21:51:00,36.2,23.2,30.40,NNW,346,3.0,4.0,59,0.00,,,0.00,Wunderground v.1.15,2013-01-20 03:51:00,
2013-01-19 21:57:00,36.0,23.4,30.41,NNW,346,3.0,4.0,60,0.00,,,0.00,Wunderground v.1.15,2013-01-20 03:57:00,
2013-01-19 22:03:00,35.7,23.2,30.40,NNW,346,3.0,4.0,60,0.00,,,0.00,Wunderground v.1.15,2013-01-20 04:03:00,
2013-01-19 22:09:00,35.6,23.5,30.40,NNW,346,4.0,6.0,61,0.00,,,0.00,Wunderground v.1.15,2013-01-20 04:09:00,
2013-01-19 22:14:00,35.5,23.4,30.40,NNW,346,5.0,6.0,61,0.00,,,0.00,Wunderground v.1.15,2013-01-20 04:14:00,
2013-01-19 22:19:00,35.5,23.4,30.40,NNW,348,5.0,8.0,61,0.00,,,0.00,Wunderground v.1.15,2013-01-20 04:19:00,
2013-01-19 22:25:00,35.4,23.3,30.40,North,355,7.0,8.0,61,0.00,,,0.00,Wunderground v.1.15,2013-01-20 04:25:00,
2013-01-19 22:30:00,35.1,23.4,30.40,North,355,6.0,6.0,62,0.00,,,0.00,Wunderground v.1.15,2013-01-20 04:30:00,
2013-01-19 22:35:00,34.8,23.1,30.40,North,355,5.0,6.0,62,0.00,,,0.00,Wunderground v.1.15,2013-01-20 04:35:00,
2013-01-19 22:41:00,34.4,23.1,30.40,North,355,5.0,5.0,63,0.00,,,0.00,Wunderground v.1.15,2013-01-20 04:41:00,
2013-01-19 22:47:00,34.2,22.9,30.40,North,355,6.0,7.0,63,0.00,,,0.00,Wunderground v.1.15,2013-01-20 04:47:00,
2013-01-19 22:52:00,34.0,23.1,30.40,North,355,6.0,8.0,64,0.00,,,0.00,Wunderground v.1.15,2013-01-20 04:52:00,
2013-01-19 22:57:00,33.9,23.0,30.40,North,360,7.0,8.0,64,0.00,,,0.00,Wunderground v.1.15,2013-01-20 04:57:00,
2013-01-19 23:00:00,33.8,22.9,30.39,North,360,7.0,7.0,64,0.00,,,0.00,Wunderground v.1.15,2013-01-20 05:00:00,
2013-01-19 23:05:00,33.6,23.1,30.39,North,360,6.0,7.0,65,0.00,,,0.00,Wunderground v.1.15,2013-01-20 05:05:00,
2013-01-19 23:06:00,33.5,23.0,30.40,North,360,6.0,7.0,65,0.00,,,0.00,Wunderground v.1.15,2013-01-20 05:06:00,
2013-01-19 23:08:00,33.5,23.0,30.40,North,360,6.0,7.0,65,0.00,,,0.00,Wunderground v.1.15,2013-01-20 05:08:00,
2013-01-19 23:13:00,33.3,22.8,30.40,North,360,5.0,5.0,65,0.00,,,0.00,Wunderground v.1.15,2013-01-20 05:13:00,
2013-01-19 23:18:00,32.9,22.8,30.40,North,360,4.0,5.0,66,0.00,,,0.00,Wunderground v.1.15,2013-01-20 05:18:00,
2013-01-19 23:24:00,33.0,22.9,30.40,North,360,4.0,6.0,66,0.00,,,0.00,Wunderground v.1.15,2013-01-20 05:24:00,
2013-01-19 23:29:00,33.0,22.9,30.41,North,360,5.0,6.0,66,0.00,,,0.00,Wunderground v.1.15,2013-01-20 05:29:00,
2013-01-19 23:35:00,32.6,22.5,30.41,North,360,4.0,5.0,66,0.00,,,0.00,Wunderground v.1.15,2013-01-20 05:35:00,
2013-01-19 23:40:00,32.4,22.3,30.40,North,360,4.0,4.0,66,0.00,,,0.00,Wunderground v.1.15,2013-01-20 05:40:00,
2013-01-19 23:46:00,32.4,22.3,30.40,North,360,4.0,4.0,66,0.00,,,0.00,Wunderground v.1.15,2013-01-20 05:46:00,
2013-01-19 23:52:00,32.0,22.3,30.40,NE,43,6.0,6.0,67,0.00,,,0.00,Wunderground v.1.15,2013-01-20 05:52:00,
2013-01-19 23:57:00,31.7,22.3,30.41,ENE,57,6.0,8.0,68,0.00,,,0.00,Wunderground v.1.15,2013-01-20 05:57:00,